LDPE-2

Last updated on Tue Oct 08 2024 00:02:42 GMT+0000 (Coordinated Universal Time)

1 54219U 22144A 24281.37476258 .00000103 00000+0 00000+0 0 9995 2 54219 4.0826 64.9131 0012302 221.8591 96.9485 0.99791323 5619
UTC large
Height (km)
Speed (km/s)
/
Latitude / Longitude
Inclination (degrees)
Orbital Period (minutes)
Azimuth
Elevation
Range (km)
Doppler Factor

Next 0 passes for location: London (51.5072 / 0.1276)

Sorry there are no passes over London.